Location: La Fredeussais
(48.1780°N, 1.3980°W)
Time: 16:41:39
(UTC+00:00)

Spot 2 Rocket - Pass Details

Date: 09 May 2021
Orbit: 758 x 771 km, 98.5° (Epoch: 24 June)

Event Time Altitude Azimuth Distance (km) Brightness Sun altitude
Exits shadow 21:36:55 21° 182° (S) 1,675 4.8 -16.7°
Maximum altitude 21:40:18 63° 258° (WSW) 851 3.8 -17.0°
Drops below altitude 10° 21:45:20 10° 340° (NNW) 2,301 7.2 -17.5°
Sets 21:47:40 0° 343° (NNW) 3,230 8.2 -17.7°
